Location: Unspecified
(22.6800°N, 112.2000°E)
Time: 14:01:37
(UTC+08:00)

Transit 2A - Pass Details

Date: 07 August 2021
Orbit: 594 x 964 km, 66.7° (Epoch: 21 September)

Event Time Altitude Azimuth Distance (km) Brightness Sun altitude
Rises 04:43:07 0° 210° (SSW) 2,823 - -18.2°
Reaches altitude 10° 04:45:22 10° 214° (SW) 1,918 - -17.8°
Exits shadow 04:47:56 34° 231° (SW) 984 6.0 -17.2°
Maximum altitude 04:49:33 57° 293° (WNW) 704 5.6 -16.9°
Drops below altitude 10° 04:53:54 10° 13° (NNE) 1,981 8.7 -16.0°
Sets 04:56:15 0° 18° (NNE) 2,926 9.7 -15.5°
